星链-3770 (STARLINK-3770 )

导读 | 豆包AI

STARLINK-3770是美国太空探索技术公司(SpaceX)于2022年5月13日发射的星链(Starlink)卫星,属于星链低轨互联网星座的组成部分。星链计划旨在构建全球覆盖的卫星互联网网络,为传统网络覆盖不足的区域提供高速互联网接入服务。作为星链规模化部署中的一员,STARLINK-3770与其他数千颗卫星共同协作,支撑全球卫星互联网服务的运行。

Basic Information
目录编号:
52554
目录名称:
STARLINK-3770
国际标识:
2022-051X
轨道中心:
EARTH
卫星名称:
星链-3770
卫星全名:
星链-3770 (STARLINK-3770 )
卫星状态:
在轨 (已飞行1402 天)
发射日期:
2022-05-13 UTC
国别 :
美国 (US)
星等 :
--
Orbit Information
数据来源 国际轨道数据 AOE轨道数据
星历时间 2026-03-14T21:02:22+0800
12小时前
查看轨道信息
2026-03-12T16:00:00+0800
2天前
查看轨道信息
半长轴 6917.874km 6917.909km
偏心率 0.0001346 0.0001129
轨道倾角 53.216° 53.216°
近地点辐角 85.445° 82.954°
升交点赤经 112.331° 122.252°
平近点角 274.670° 146.405°
近地点 538.805km 538.99km
远地点 540.669km 540.554km
周期 95.437分钟 95.438分钟
每日圈数 15.088423 15.088307
Detailed Information
固有亮度:
5
最大亮度:
2.5
卫星平台:
Starlink v1.5
覆盖范围:
全球
运营商:
太空探索技术公司
运营商所在国:
美国
制造商(研发单位):
太空探索技术公司
制造商所在国:
美国
使用方式:
暂无
Satellite Introduction
星链(Starlink)计划是由太空探索技术公司(SpaceX)提出的一个巨型低轨卫星互联网星座项目,计划在2019年至2024年间在太空搭建由约1.2万颗卫星组成的“星链”网络,其中1584颗将部署在地球上空550千米处的近地轨道,并从2020年开始工作。该卫星仍在工作。
2D Orbit Map
3D Orbit Map
Orbit Altitude Analysis Chart
Orbit Inclination Analysis Chart
Orbit Comprehensive Analysis Chart
View Comprehensive Chart